Back to catalog

STARLINK-37193

AliveCommunicationsSSO
NORAD 68390·PAYLOAD·🇺🇸 United States

Launched Mar 26, 2026 from Vandenberg Space Force Base

Loading…

Next Passes (next 24 hours)

TLE

FreshSource: CelesTrak SupGP

Epoch: Sep 14, 2026, 23:31 UTC

1 68390C 26063L   26257.98034722 -.00040838  00000+0 -12677-2 0  2576
2 68390  97.2862  41.8576 0000876  92.1599 316.8079 15.33460542    17

Track STARLINK-37193 in real time with AllMySat

Download on the App Store